Time,TemperatureF,DewpointF,PressureIn,WindDirection,WindDirectionDegrees,WindSpeedMPH,WindSpeedGustMPH,Humidity,HourlyPrecipIn,Conditions,Clouds,dailyrainin,SoftwareType,DateUTC
2013-02-14 00:22:00,33.0,-99.9,29.74,SE,132,-999.0,-999.0,-999,-99.99,,,-99.99,,2013-02-14 05:22:00,
2013-02-14 00:32:00,33.0,-99.9,29.74,SE,132,-999.0,-999.0,-999,-99.99,,,-99.99,,2013-02-14 05:32:00,
2013-02-14 00:42:00,33.0,-99.9,29.74,SE,132,-999.0,-999.0,-999,-99.99,,,-99.99,,2013-02-14 05:42:00,
2013-02-14 00:52:00,33.0,-99.9,29.75,SE,132,-999.0,-999.0,-999,-99.99,,,-99.99,,2013-02-14 05:52:00,
2013-02-14 01:32:00,33.0,-99.9,29.75,SE,132,-999.0,-999.0,-999,-99.99,,,-99.99,,2013-02-14 06:32:00,
2013-02-14 01:42:00,33.0,-99.9,29.75,SE,132,-999.0,-999.0,-999,-99.99,,,-99.99,,2013-02-14 06:42:00,
2013-02-14 01:52:00,32.0,-99.9,29.77,SE,132,-999.0,-999.0,-999,-99.99,,,-99.99,,2013-02-14 06:52:00,
2013-02-14 02:22:00,32.0,-99.9,29.77,SE,132,-999.0,-999.0,-999,-99.99,,,-99.99,,2013-02-14 07:22:00,
2013-02-14 02:32:00,32.0,-99.9,29.77,SE,132,-999.0,-999.0,-999,-99.99,,,-99.99,,2013-02-14 07:32:00,
2013-02-14 02:42:00,32.0,-99.9,29.77,SE,132,-999.0,-999.0,-999,-99.99,,,-99.99,,2013-02-14 07:42:00,
2013-02-14 02:52:00,33.0,-99.9,29.82,SE,132,-999.0,-999.0,-999,-99.99,,,-99.99,,2013-02-14 07:52:00,
2013-02-14 03:22:00,33.0,-99.9,29.82,SE,132,-999.0,-999.0,-999,-99.99,,,-99.99,,2013-02-14 08:22:00,
2013-02-14 03:32:00,33.0,-99.9,29.82,SE,132,-999.0,-999.0,-999,-99.99,,,-99.99,,2013-02-14 08:32:00,
2013-02-14 03:43:00,33.0,-99.9,29.82,SE,132,-999.0,-999.0,-999,-99.99,,,-99.99,,2013-02-14 08:43:00,
2013-02-14 03:52:00,32.0,-99.9,29.83,SE,132,-999.0,-999.0,-999,-99.99,,,-99.99,,2013-02-14 08:52:00,
2013-02-14 04:22:00,32.0,-99.9,29.83,SE,132,-999.0,-999.0,-999,-99.99,,,-99.99,,2013-02-14 09:22:00,
2013-02-14 04:32:00,32.0,-99.9,29.83,SE,132,-999.0,-999.0,-999,-99.99,,,-99.99,,2013-02-14 09:32:00,
2013-02-14 04:42:00,32.0,-99.9,29.83,SE,132,-999.0,-999.0,-999,-99.99,,,-99.99,,2013-02-14 09:42:00,
2013-02-14 04:52:00,31.0,-99.9,29.86,SE,132,-999.0,-999.0,-999,-99.99,,,-99.99,,2013-02-14 09:52:00,
2013-02-14 05:22:00,31.0,-99.9,29.86,SE,132,-999.0,-999.0,-999,-99.99,,,-99.99,,2013-02-14 10:22:00,
2013-02-14 05:32:00,31.0,-99.9,29.86,SE,132,-999.0,-999.0,-999,-99.99,,,-99.99,,2013-02-14 10:32:00,
2013-02-14 05:42:00,31.0,-99.9,29.86,SE,132,-999.0,-999.0,-999,-99.99,,,-99.99,,2013-02-14 10:42:00,
2013-02-14 05:52:00,30.0,-99.9,29.89,SE,132,-999.0,-999.0,-999,-99.99,,,-99.99,,2013-02-14 10:52:00,
2013-02-14 06:32:00,30.0,-99.9,29.89,SE,132,-999.0,-999.0,-999,-99.99,,,-99.99,,2013-02-14 11:32:00,
2013-02-14 06:42:00,30.0,-99.9,29.89,SE,132,-999.0,-999.0,-999,-99.99,,,-99.99,,2013-02-14 11:42:00,
2013-02-14 06:52:00,31.0,-99.9,29.92,West,273,-999.0,6.0,-999,-99.99,,,-99.99,,2013-02-14 11:52:00,
2013-02-14 07:22:00,31.0,-99.9,29.92,West,273,-999.0,6.0,-999,-99.99,,,-99.99,,2013-02-14 12:22:00,
2013-02-14 07:32:00,31.0,-99.9,29.92,West,273,-999.0,6.0,-999,-99.99,,,-99.99,,2013-02-14 12:32:00,
2013-02-14 07:42:00,31.0,-99.9,29.92,West,273,-999.0,6.0,-999,-99.99,,,-99.99,,2013-02-14 12:42:00,
2013-02-14 07:52:00,32.0,-99.9,29.95,WSW,252,-999.0,-999.0,-999,-99.99,,,-99.99,,2013-02-14 12:52:00,
2013-02-14 08:21:00,32.0,-99.9,29.95,WSW,252,-999.0,-999.0,-999,-99.99,,,-99.99,,2013-02-14 13:21:00,
2013-02-14 08:32:00,32.0,-99.9,29.95,WSW,252,-999.0,-999.0,-999,-99.99,,,-99.99,,2013-02-14 13:32:00,
2013-02-14 08:42:00,32.0,-99.9,29.95,WSW,252,-999.0,-999.0,-999,-99.99,,,-99.99,,2013-02-14 13:42:00,
2013-02-14 08:52:00,33.0,-99.9,29.97,WSW,252,-999.0,-999.0,-999,-99.99,,,-99.99,,2013-02-14 13:52:00,
2013-02-14 09:22:00,33.0,-99.9,29.97,WSW,252,-999.0,-999.0,-999,-99.99,,,-99.99,,2013-02-14 14:22:00,
2013-02-14 09:32:00,33.0,-99.9,29.97,WSW,252,-999.0,-999.0,-999,-99.99,,,-99.99,,2013-02-14 14:32:00,
2013-02-14 09:42:00,33.0,-99.9,29.97,WSW,252,-999.0,-999.0,-999,-99.99,,,-99.99,,2013-02-14 14:42:00,
2013-02-14 09:52:00,34.0,-99.9,29.99,WSW,252,-999.0,-999.0,-999,-99.99,,,-99.99,,2013-02-14 14:52:00,
2013-02-14 10:22:00,34.0,-99.9,29.99,WSW,252,-999.0,-999.0,-999,-99.99,,,-99.99,,2013-02-14 15:22:00,
2013-02-14 10:32:00,34.0,-99.9,29.99,WSW,252,-999.0,-999.0,-999,-99.99,,,-99.99,,2013-02-14 15:32:00,
2013-02-14 10:42:00,34.0,-99.9,29.99,WSW,252,-999.0,-999.0,-999,-99.99,,,-99.99,,2013-02-14 15:42:00,
2013-02-14 10:52:00,37.0,-99.9,30.00,WSW,252,-999.0,-999.0,-999,-99.99,,,-99.99,,2013-02-14 15:52:00,
2013-02-14 11:22:00,37.0,-99.9,30.00,WSW,252,-999.0,-999.0,-999,-99.99,,,-99.99,,2013-02-14 16:22:00,
2013-02-14 11:32:00,37.0,-99.9,30.00,WSW,252,-999.0,-999.0,-999,-99.99,,,-99.99,,2013-02-14 16:32:00,
2013-02-14 11:42:00,37.0,-99.9,30.00,WSW,252,-999.0,-999.0,-999,-99.99,,,-99.99,,2013-02-14 16:42:00,
2013-02-14 11:52:00,42.0,-99.9,29.98,WSW,252,-999.0,-999.0,-999,-99.99,,,-99.99,,2013-02-14 16:52:00,
2013-02-14 12:32:00,42.0,-99.9,29.98,WSW,252,-999.0,-999.0,-999,-99.99,,,-99.99,,2013-02-14 17:32:00,
2013-02-14 12:42:00,42.0,-99.9,29.98,WSW,252,-999.0,-999.0,-999,-99.99,,,-99.99,,2013-02-14 17:42:00,
2013-02-14 12:52:00,46.0,-99.9,29.97,WSW,252,-999.0,-999.0,-999,-99.99,,,-99.99,,2013-02-14 17:52:00,
2013-02-14 13:23:00,46.0,-99.9,29.97,WSW,252,-999.0,-999.0,-999,-99.99,,,-99.99,,2013-02-14 18:23:00,
2013-02-14 13:32:00,46.0,-99.9,29.97,WSW,252,-999.0,-999.0,-999,-99.99,,,-99.99,,2013-02-14 18:32:00,
2013-02-14 13:42:00,46.0,-99.9,29.97,WSW,252,-999.0,-999.0,-999,-99.99,,,-99.99,,2013-02-14 18:42:00,
2013-02-14 13:52:00,46.0,-99.9,29.96,WSW,252,-999.0,-999.0,-999,-99.99,,,-99.99,,2013-02-14 18:52:00,
2013-02-14 14:22:00,46.0,-99.9,29.96,WSW,252,-999.0,-999.0,-999,-99.99,,,-99.99,,2013-02-14 19:22:00,
2013-02-14 14:32:00,46.0,-99.9,29.96,WSW,252,-999.0,-999.0,-999,-99.99,,,-99.99,,2013-02-14 19:32:00,
2013-02-14 14:42:00,46.0,-99.9,29.96,WSW,252,-999.0,-999.0,-999,-99.99,,,-99.99,,2013-02-14 19:42:00,
2013-02-14 14:52:00,46.0,-99.9,29.97,WSW,252,-999.0,-999.0,-999,-99.99,,,-99.99,,2013-02-14 19:52:00,
2013-02-14 15:22:00,46.0,-99.9,29.97,WSW,252,-999.0,-999.0,-999,-99.99,,,-99.99,,2013-02-14 20:22:00,
2013-02-14 15:32:00,46.0,-99.9,29.97,WSW,252,-999.0,-999.0,-999,-99.99,,,-99.99,,2013-02-14 20:32:00,
2013-02-14 15:42:00,46.0,-99.9,29.97,WSW,252,-999.0,-999.0,-999,-99.99,,,-99.99,,2013-02-14 20:42:00,
2013-02-14 15:52:00,45.0,-99.9,29.97,WSW,252,-999.0,-999.0,-999,-99.99,,,-99.99,,2013-02-14 20:52:00,
2013-02-14 16:22:00,45.0,-99.9,29.97,WSW,252,-999.0,-999.0,-999,-99.99,,,-99.99,,2013-02-14 21:22:00,
2013-02-14 16:32:00,45.0,-99.9,29.97,WSW,252,-999.0,-999.0,-999,-99.99,,,-99.99,,2013-02-14 21:32:00,
2013-02-14 16:42:00,45.0,-99.9,29.97,WSW,252,-999.0,-999.0,-999,-99.99,,,-99.99,,2013-02-14 21:42:00,
2013-02-14 16:52:00,44.0,-99.9,29.98,WSW,252,-999.0,-999.0,-999,-99.99,,,-99.99,,2013-02-14 21:52:00,
2013-02-14 17:21:00,44.0,-99.9,29.98,WSW,252,-999.0,-999.0,-999,-99.99,,,-99.99,,2013-02-14 22:21:00,
2013-02-14 17:32:00,44.0,-99.9,29.98,WSW,252,-999.0,-999.0,-999,-99.99,,,-99.99,,2013-02-14 22:32:00,
2013-02-14 17:42:00,44.0,-99.9,29.98,WSW,252,-999.0,-999.0,-999,-99.99,,,-99.99,,2013-02-14 22:42:00,
2013-02-14 17:52:00,38.0,-99.9,29.98,WSW,253,-999.0,-999.0,-999,-99.99,,,-99.99,,2013-02-14 22:52:00,
2013-02-14 18:22:00,38.0,-99.9,29.98,WSW,253,-999.0,-999.0,-999,-99.99,,,-99.99,,2013-02-14 23:22:00,
2013-02-14 18:32:00,38.0,-99.9,29.98,WSW,253,-999.0,-999.0,-999,-99.99,,,-99.99,,2013-02-14 23:32:00,
2013-02-14 18:42:00,38.0,-99.9,29.98,WSW,253,-999.0,-999.0,-999,-99.99,,,-99.99,,2013-02-14 23:42:00,
2013-02-14 18:52:00,33.0,-99.9,29.99,WSW,253,-999.0,-999.0,-999,-99.99,,,-99.99,,2013-02-14 23:52:00,
2013-02-14 19:22:00,33.0,-99.9,29.99,WSW,253,-999.0,-999.0,-999,-99.99,,,-99.99,,2013-02-15 00:22:00,
2013-02-14 19:32:00,33.0,-99.9,29.99,WSW,253,-999.0,-999.0,-999,-99.99,,,-99.99,,2013-02-15 00:32:00,
2013-02-14 19:42:00,33.0,-99.9,29.99,WSW,253,-999.0,-999.0,-999,-99.99,,,-99.99,,2013-02-15 00:42:00,
2013-02-14 19:52:00,31.0,-99.9,30.01,WNW,291,-999.0,-999.0,-999,-99.99,,,-99.99,,2013-02-15 00:52:00,
2013-02-14 20:22:00,31.0,-99.9,30.01,WNW,291,-999.0,-999.0,-999,-99.99,,,-99.99,,2013-02-15 01:22:00,
2013-02-14 20:32:00,31.0,-99.9,30.01,WNW,291,-999.0,-999.0,-999,-99.99,,,-99.99,,2013-02-15 01:32:00,
2013-02-14 20:42:00,31.0,-99.9,30.01,WNW,291,-999.0,-999.0,-999,-99.99,,,-99.99,,2013-02-15 01:42:00,
2013-02-14 21:52:00,28.0,-99.9,30.02,WNW,291,-999.0,-999.0,-999,-99.99,,,-99.99,,2013-02-15 02:52:00,
2013-02-14 22:22:00,28.0,-99.9,30.02,WNW,291,-999.0,-999.0,-999,-99.99,,,-99.99,,2013-02-15 03:22:00,
2013-02-14 22:32:00,28.0,-99.9,30.02,WNW,291,-999.0,-999.0,-999,-99.99,,,-99.99,,2013-02-15 03:32:00,
2013-02-14 22:42:00,28.0,-99.9,30.02,WNW,291,-999.0,-999.0,-999,-99.99,,,-99.99,,2013-02-15 03:42:00,
2013-02-14 22:52:00,28.0,-99.9,30.02,WNW,291,-999.0,-999.0,-999,-99.99,,,-99.99,,2013-02-15 03:52:00,
2013-02-14 23:22:00,28.0,-99.9,30.02,WNW,291,-999.0,-999.0,-999,-99.99,,,-99.99,,2013-02-15 04:22:00,
2013-02-14 23:32:00,28.0,-99.9,30.02,WNW,291,-999.0,-999.0,-999,-99.99,,,-99.99,,2013-02-15 04:32:00,
2013-02-14 23:42:00,28.0,-99.9,30.02,WNW,291,-999.0,-999.0,-999,-99.99,,,-99.99,,2013-02-15 04:42:00,
2013-02-14 23:52:00,27.0,-99.9,30.02,WNW,291,-999.0,-999.0,-999,-99.99,,,-99.99,,2013-02-15 04:52:00,